Location: Newark
(48.6461°N, 4.3644°W)
Time: 14:41:27
(UTC+00:00)

STARLINK 1053 - Pass Details

Date: 12 December 2019
Orbit: 549 x 551 km, 53.0° (Epoch: 19 January)

Event Time Altitude Azimuth Distance (km) Brightness Sun altitude
Exits shadow 05:50:32 25° 213° (SSW) 1,147 5.0 -20.4°
Drops below altitude 10° 05:53:40 10° 167° (SSE) 1,859 6.6 -19.9°
Sets 05:56:10 0° 154° (SSE) 2,752 7.8 -19.5°
